GFSSGP_850_rhum_231.txt.gz
RH
13 16 22 18 16 12 11 8 6 8 10 10 10 11 9 10 16 26 31 33 41 48 29 31 26 20 24 49 63 65 65 58 53 41 42 44 45 46 44 52 52 45 42 34 32 33 34 30 33
13 17 17 13 12 12 9 7 7 9 11 11 12 11 8 16 22 31 34 39 43 50 32 32 28 19 20 36 53 63 65 64 49 41 40 37 47 57 51 49 49 34 33 32 32 32 29 29 30
13 16 13 8 8 9 13 7 8 9 12 12 10 11 10 19 25 29 37 44 46 52 42 33 30 19 18 27 41 54 65 58 40 40 36 32 41 57 55 48 43 31 31 31 29 30 31 32 32
13 11 9 8 8 6 8 7 8 10 12 11 10 11 23 27 25 31 43 44 47 52 58 35 32 23 17 20 31 36 46 42 39 36 31 31 33 31 32 41 33 31 31 30 31 31 34 37 37
11 8 8 6 6 6 7 7 8 9 11 11 10 12 24 30 32 40 43 44 48 54 62 39 35 27 19 18 22 26 32 37 38 34 25 31 34 30 29 30 28 30 32 34 38 39 39 38 37
9 6 6 6 6 6 6 7 7 9 11 11 10 14 25 34 34 38 42 46 50 56 61 39 39 33 22 19 21 25 30 35 34 32 25 29 34 31 29 28 28 29 32 38 43 48 44 40 42
8 6 5 5 4 6 6 8 7 8 10 10 11 12 29 30 34 38 44 50 54 61 64 38 42 40 29 21 20 23 30 31 33 32 26 26 31 30 31 31 30 31 37 42 46 50 52 44 48
8 7 6 4 4 5 6 7 7 8 9 12 13 13 23 31 35 40 45 55 60 70 65 40 42 44 39 26 22 21 23 31 32 33 29 26 31 30 31 32 31 35 43 47 47 48 48 50 46
8 8 6 4 4 4 6 6 8 9 11 14 15 20 19 38 36 41 47 56 64 74 75 43 44 45 44 35 25 24 22 26 32 34 32 26 29 31 32 33 32 33 41 46 43 49 51 50 52
8 7 5 3 3 3 5 6 7 9 11 14 17 29 31 36 36 39 43 51 60 69 77 57 48 50 47 68 32 25 24 23 29 33 32 31 51 35 62 45 30 34 42 49 43 47 53 57 74
8 8 4 4 5 5 5 6 7 8 10 13 17 28 38 34 34 36 36 42 50 60 70 76 56 58 70 72 65 35 37 34 25 34 45 58 74 65 73 76 34 31 35 46 49 46 50 57 76
8 7 5 5 6 6 6 5 6 7 8 10 12 23 34 33 31 31 31 35 43 52 62 69 75 73 75 68 76 68 67 64 62 72 71 75 76 79 73 69 71 37 51 49 65 68 48 80 81
7 6 6 6 6 6 7 6 7 7 8 13 13 21 32 31 28 26 26 29 36 45 55 64 70 78 76 72 69 69 66 68 66 68 66 74 74 77 76 67 70 71 69 58 69 71 75 78 80
6 6 8 6 6 6 6 6 8 7 7 8 10 17 30 29 26 24 24 25 32 39 48 62 65 73 76 69 68 72 70 66 66 68 71 28 69 70 73 69 68 64 67 68 68 67 67 74 74
7 8 8 7 6 6 6 7 7 6 6 8 9 16 26 29 25 22 22 22 29 34 41 59 62 66 62 51 70 73 71 70 73 65 68 63 51 65 64 66 67 65 66 68 68 68 70 70 73
12 10 12 7 6 6 7 8 4 5 6 7 9 12 21 26 25 21 21 21 23 30 36 53 56 64 56 60 66 74 72 77 72 71 66 69 49 64 58 62 64 64 66 67 71 71 69 70 69
17 14 11 7 4 5 7 8 5 3 4 6 7 8 15 23 25 21 20 22 22 26 35 47 53 55 48 61 72 74 74 76 75 72 67 68 50 44 60 56 58 62 64 63 68 69 68 64 66
14 13 11 8 5 4 5 8 6 4 3 4 6 7 8 17 24 24 21 23 24 24 30 40 51 45 48 71 71 76 73 75 73 70 69 67 58 33 39 52 50 58 62 62 65 66 66 64 59
12 9 9 8 6 5 7 7 5 4 4 4 6 6 6 8 15 20 21 24 26 25 29 35 48 49 58 65 71 70 66 65 70 67 64 65 64 51 33 29 43 47 49 53 60 62 61 64 66
15 14 12 8 6 7 7 8 6 4 4 4 4 6 6 6 8 11 18 24 26 26 29 36 41 49 40 54 57 60 59 61 61 66 67 66 66 63 40 30 32 35 40 47 54 60 61 60 64
16 18 15 12 8 9 10 12 9 5 4 4 4 5 6 6 7 7 8 14 22 28 30 34 42 50 51 44 58 61 62 62 64 67 69 62 55 50 46 35 34 41 40 40 39 48 51 60 66
20 15 16 16 14 14 11 17 10 7 6 5 6 6 6 6 7 8 8 9 11 14 22 30 35 43 56 60 60 62 63 61 54 51 44 61 61 58 57 52 46 45 51 48 46 47 52 52 61
18 16 18 20 20 20 17 17 13 8 6 6 6 6 6 6 7 8 8 8 9 11 13 16 23 35 43 52 45 63 67 61 55 62 65 68 70 64 67 63 60 56 57 53 54 62 60 62 58
14 17 19 21 24 30 22 20 16 11 8 7 5 5 6 6 6 6 7 8 8 8 8 12 12 11 19 43 55 43 65 59 60 61 65 66 68 71 64 65 64 62 62 59 58 57 66 62 67
14 22 30 32 36 40 19 21 18 10 8 7 7 5 6 6 7 7 7 8 7 7 7 10 20 13 14 25 49 53 48 39 45 58 62 67 69 70 52 45 50 43 48 63 67 68 64 76 70
20 21 29 35 30 25 18 22 15 10 9 9 8 8 9 9 9 10 9 9 8 7 8 10 14 12 12 15 40 60 53 47 56 55 60 64 65 60 58 43 41 38 47 57 68 73 77 75 78
24 22 16 24 20 22 14 13 12 10 9 9 9 10 9 10 9 9 12 11 13 12 13 17 21 28 26 24 28 53 67 59 54 44 55 62 67 68 58 50 40 39 42 52 61 67 70 81 80
15 15 25 24 35 34 20 17 13 12 11 10 10 11 11 11 10 9 10 11 15 17 17 19 28 32 22 26 28 24 44 42 30 51 62 54 62 64 70 62 46 40 45 54 61 61 72 84 81
21 23 21 21 24 31 28 18 11 11 11 12 12 13 15 16 16 13 12 14 16 20 24 27 37 45 41 38 31 21 18 16 18 29 44 45 46 68 70 71 54 48 52 60 58 52 61 71 82
16 23 37 33 28 25 28 22 10 10 9 11 10 11 12 13 15 17 18 18 18 19 19 24 32 43 50 54 43 34 27 26 29 31 28 36 54 69 79 85 86 90 86 80 52 50 60 70 82

GFSSGP_850_rhum_234.txt.gz
RH
12 19 17 18 18 17 15 12 6 9 10 8 7 9 10 15 21 37 28 32 33 18 15 14 14 21 53 62 65 66 60 54 48 43 43 40 44 45 54 52 49 36 30 27 29 33 31 32 29
10 14 15 14 17 15 19 14 10 10 9 9 10 6 11 20 24 29 33 39 30 13 16 14 13 14 36 59 65 67 61 59 48 44 43 41 44 45 53 54 43 36 31 29 32 29 29 29 30
13 14 12 12 11 11 15 13 10 10 9 9 8 12 14 20 25 30 37 42 26 15 17 15 13 13 22 47 58 65 61 60 44 43 40 41 55 48 49 50 37 34 33 32 31 29 29 29 30
11 10 10 10 10 8 12 10 8 10 10 9 9 16 19 20 25 36 39 45 35 19 18 18 13 13 17 38 52 59 60 51 40 41 36 37 55 56 51 42 32 32 33 32 31 30 31 30 31
9 8 10 9 6 5 6 7 8 9 10 9 10 18 20 25 33 38 41 45 48 35 20 21 15 13 14 27 46 54 45 38 39 37 31 36 38 41 41 44 33 32 32 31 32 35 36 36 36
9 8 10 7 6 5 5 6 7 7 10 9 17 20 25 30 35 39 41 45 50 42 27 24 19 15 14 17 33 42 38 33 36 34 27 34 34 31 37 34 33 34 34 38 39 39 37 36 34
10 8 9 6 5 5 5 6 7 7 9 9 11 24 28 29 36 38 41 46 52 49 30 28 24 17 16 16 21 29 32 33 33 31 25 34 35 31 31 30 32 34 37 44 48 45 40 38 35
8 7 8 7 6 5 6 6 6 7 7 9 11 24 27 29 35 39 44 48 54 55 29 30 29 23 18 18 20 22 30 33 31 30 24 29 35 31 31 31 32 35 40 47 49 49 43 40 42
9 10 10 8 6 5 6 6 6 7 7 10 12 18 24 31 34 40 47 53 58 62 32 33 33 30 22 19 19 22 26 31 32 31 28 26 31 31 31 32 33 37 47 51 50 48 48 46 42
8 10 8 5 4 3 4 5 5 7 7 11 19 21 28 31 36 40 47 54 63 69 36 32 35 34 30 21 19 20 22 26 29 31 28 24 28 29 30 32 31 36 46 51 47 49 52 50 52
7 10 7 5 4 4 4 5 5 7 8 11 21 28 33 30 35 39 44 51 59 68 49 30 34 37 36 34 20 20 19 20 26 28 29 27 26 29 54 38 33 29 37 44 45 40 48 52 57
8 6 6 6 5 4 5 5 5 6 7 8 16 29 32 30 33 36 39 46 53 63 63 36 33 35 38 64 34 20 18 18 19 23 26 29 43 69 38 40 33 26 25 29 34 37 37 47 54
7 6 5 6 6 5 5 5 6 5 6 6 12 27 32 31 31 32 33 38 47 57 65 61 39 31 35 69 60 37 23 19 17 19 21 27 42 72 66 61 60 31 24 26 29 31 33 37 40
6 6 5 5 5 6 5 6 6 6 6 6 9 18 31 30 28 28 28 31 40 50 58 64 61 34 30 44 71 57 51 39 28 30 25 23 33 73 71 64 70 64 38 25 34 40 48 57 50
9 8 6 6 6 6 5 6 7 5 6 7 6 10 25 29 27 26 26 26 33 41 51 56 64 57 31 36 70 68 64 64 59 53 52 32 33 65 72 68 66 68 64 62 64 55 69 68 69
19 11 12 7 6 7 6 9 6 5 5 6 6 8 10 26 27 24 24 24 30 35 44 50 58 64 49 34 53 72 67 65 63 62 62 54 40 38 66 66 60 67 66 65 67 68 66 69 69
17 20 14 10 7 7 7 8 6 5 5 5 6 6 7 11 26 24 22 22 25 31 37 43 51 60 51 42 41 65 64 71 68 65 60 63 46 38 40 48 51 59 62 67 67 65 68 68 70
18 14 14 14 9 8 7 7 6 5 5 5 5 6 7 10 20 24 22 21 20 26 31 35 41 56 55 54 48 52 70 70 73 68 60 56 46 37 36 44 46 56 53 59 62 67 63 63 66
17 13 10 10 9 10 10 7 5 5 6 6 5 5 6 7 12 21 22 20 19 22 29 32 38 44 60 60 57 61 52 70 69 63 60 57 49 41 39 33 39 48 59 48 47 58 64 66 62
18 19 18 12 9 9 10 10 6 5 6 6 5 4 5 6 7 15 22 20 20 20 27 30 31 38 47 46 41 42 52 57 57 59 61 61 62 50 38 35 30 31 44 52 48 52 58 60 66
19 18 18 17 13 10 10 10 8 6 6 5 4 4 4 5 6 10 19 23 22 22 26 30 27 30 38 39 56 65 68 75 74 70 61 56 57 56 40 36 37 34 36 39 39 43 49 51 53
22 15 14 14 16 21 11 14 12 9 8 7 6 4 4 5 6 6 10 20 22 25 25 30 30 32 33 37 46 49 55 57 47 48 53 49 54 59 57 48 46 47 43 42 38 39 42 49 54
17 14 14 14 16 22 21 20 11 10 10 9 8 5 5 6 5 6 6 10 20 25 26 27 34 40 38 39 45 47 57 56 47 62 63 59 57 57 56 56 51 51 57 53 47 49 47 47 46
10 13 15 16 19 30 23 24 19 11 11 9 7 6 5 6 6 6 6 7 8 15 18 20 27 34 46 44 39 46 51 48 60 62 63 61 61 61 59 57 56 58 60 64 61 58 60 55 54
12 17 26 30 31 34 20 23 21 13 11 11 11 9 6 6 6 6 7 7 7 8 9 13 11 12 22 44 53 50 46 44 41 56 63 65 66 67 56 55 60 56 55 59 74 72 70 67 66
19 17 26 42 35 28 18 25 19 13 11 11 11 10 9 9 9 8 7 8 8 8 7 7 13 17 13 13 24 55 54 59 46 47 61 65 68 63 57 55 53 52 56 68 76 85 78 79 74
36 31 15 25 27 31 20 15 15 14 13 13 12 10 10 9 9 9 10 10 10 10 10 12 11 9 25 21 23 21 30 62 61 59 69 62 65 67 68 65 56 55 58 60 76 84 81 80 79
9 9 31 31 36 40 26 23 18 17 16 14 13 13 11 10 11 11 11 10 11 12 13 15 15 19 23 24 21 20 18 35 64 65 74 76 66 64 71 73 67 61 60 60 63 71 70 82 81
25 12 15 20 33 41 32 23 15 15 16 15 14 10 11 10 14 16 16 15 16 17 18 18 22 23 21 27 34 30 32 32 59 76 78 75 73 71 66 72 70 62 60 59 63 60 65 82 82
27 35 54 65 32 27 44 47 20 19 13 12 13 12 14 14 16 15 16 17 19 19 19 21 21 28 37 46 50 44 40 43 42 63 78 76 68 69 66 72 73 65 59 57 56 61 71 88 89

GFSSGP_850_rhum_240.txt.gz
RH
13 14 15 19 26 35 26 22 21 18 15 20 16 22 30 30 35 42 35 39 24 12 32 39 41 46 53 57 53 52 45 36 32 36 35 38 42 41 30 31 31 29 29 29 30 33 34 34 37
12 14 16 21 30 32 27 19 22 14 20 21 21 27 32 38 38 36 42 35 14 10 20 34 37 42 51 57 56 53 47 36 30 37 36 40 43 41 32 29 27 28 29 29 29 30 31 34 42
12 12 16 27 34 26 24 18 16 13 18 17 25 25 31 43 32 34 37 21 11 11 14 23 28 36 43 50 57 53 46 37 29 34 35 41 42 37 34 30 28 29 30 30 28 28 31 46 61
11 14 18 19 22 19 13 16 14 14 15 17 22 32 29 27 30 35 29 12 11 11 14 16 22 28 34 38 48 54 44 34 27 34 34 39 40 37 31 30 29 29 27 29 29 29 37 54 62
11 12 18 20 19 14 9 8 10 14 16 19 21 32 36 38 31 33 29 12 11 11 12 13 17 21 26 29 37 47 45 32 26 32 37 37 38 36 30 29 29 29 28 28 29 30 38 52 59
12 13 18 20 16 12 10 7 7 12 18 23 30 36 42 34 30 35 35 15 11 10 11 12 14 17 22 24 30 36 36 36 26 27 38 35 34 31 27 28 29 28 28 29 29 30 32 48 64
14 19 19 17 16 11 8 6 8 19 22 24 28 46 51 39 32 35 34 14 12 11 11 11 14 16 18 24 29 27 27 28 27 25 30 32 30 30 27 27 29 28 29 31 32 34 35 45 61
13 16 15 15 15 12 8 7 6 8 22 23 26 47 52 42 36 36 29 16 14 12 11 11 13 16 18 23 27 28 25 23 21 23 26 27 27 28 26 28 29 30 32 34 35 35 34 34 55
12 17 20 16 13 11 9 10 7 6 19 23 25 25 26 40 39 38 30 20 20 16 12 11 11 13 16 20 25 28 28 26 20 20 26 27 25 25 25 26 28 29 32 35 35 34 33 30 32
14 19 16 13 11 11 9 9 8 7 7 23 26 28 32 40 38 35 32 24 23 20 15 11 11 11 14 17 22 25 28 28 25 19 22 24 24 24 24 25 26 29 32 34 36 36 32 29 25
15 15 11 9 8 8 10 10 8 7 10 17 40 42 39 41 39 34 27 18 14 17 19 14 11 11 12 13 17 20 24 25 24 21 19 23 25 26 26 26 26 28 32 31 30 33 33 34 24
17 13 13 11 9 8 8 7 8 7 7 8 33 21 36 41 38 32 27 27 23 22 18 17 14 12 12 12 14 16 18 22 22 22 20 20 22 22 23 24 23 23 25 29 29 30 35 36 27
23 18 17 17 16 9 8 8 8 7 7 8 32 42 41 36 34 33 23 24 27 25 21 20 18 14 12 12 12 14 15 17 19 21 20 18 18 19 19 20 20 21 21 24 26 26 30 36 40
30 31 27 22 20 16 10 8 7 6 7 6 23 40 43 40 37 44 44 30 28 27 21 22 21 20 16 13 12 12 13 14 17 20 20 19 17 16 16 17 19 20 20 21 21 23 24 24 33
33 35 28 24 21 15 9 10 10 6 7 7 13 36 42 44 44 35 27 24 19 22 22 18 20 23 22 18 14 13 13 13 14 15 19 20 20 19 17 17 18 19 21 24 23 22 24 26 26
34 34 38 19 17 14 9 13 10 7 6 7 10 20 34 40 41 36 31 29 28 28 30 24 18 21 24 23 22 19 15 14 14 14 14 16 20 20 20 20 21 25 26 33 40 31 23 23 24
40 38 29 20 17 17 12 12 10 7 7 7 8 7 17 32 38 40 38 28 28 28 30 31 24 16 20 23 26 26 25 23 19 16 15 15 16 18 21 22 22 31 35 33 38 41 38 33 35
39 33 30 30 21 15 15 16 13 9 8 8 7 8 7 14 30 33 38 37 33 31 33 33 29 23 19 23 26 31 33 32 36 27 22 20 17 18 19 20 24 37 51 43 38 39 46 44 41
22 26 28 24 21 26 25 23 19 12 10 9 8 7 7 7 9 21 33 37 37 35 35 35 35 30 31 25 24 32 34 38 42 42 33 29 32 33 29 28 27 33 47 46 43 46 48 47 56
28 29 30 25 26 27 26 21 18 17 14 12 9 8 7 6 7 8 23 34 38 36 31 34 33 32 30 27 20 21 25 35 39 44 38 33 34 36 40 35 31 33 35 41 45 47 45 45 54
29 32 31 26 18 18 21 26 22 15 13 12 12 11 8 6 6 6 7 24 33 34 34 32 31 29 31 24 27 29 38 46 53 42 42 37 40 41 41 40 38 37 40 34 34 40 44 45 53
31 24 29 35 26 28 22 34 23 17 16 17 15 12 8 7 6 5 6 9 27 32 30 29 29 27 26 27 24 20 17 23 19 23 26 34 40 42 43 48 48 45 46 46 38 38 36 48 43
27 24 27 28 38 40 27 36 26 20 21 20 18 13 10 7 7 6 6 6 11 24 31 28 28 28 24 26 24 19 16 14 18 25 25 31 29 35 39 44 48 50 50 48 48 49 46 44 46
21 24 28 40 42 50 31 28 27 24 19 19 16 14 14 13 12 10 9 8 8 21 27 31 29 29 26 26 26 25 20 16 20 24 29 26 26 28 34 35 44 44 49 49 50 53 55 55 50
37 60 82 62 50 46 24 29 23 20 17 18 20 15 13 12 11 11 10 9 8 24 34 45 44 35 36 30 29 27 25 24 24 25 25 25 26 28 24 27 35 40 44 48 54 60 64 62 64
42 51 92 93 63 51 25 36 26 22 18 16 15 16 17 16 14 13 12 10 10 12 26 33 42 40 35 33 33 29 26 26 27 30 32 33 35 33 32 32 34 37 45 52 56 60 60 65 67
42 58 46 91 83 60 43 30 20 35 35 33 32 30 31 25 24 21 19 12 12 13 31 35 32 33 36 33 33 36 33 31 30 31 34 38 40 42 43 44 42 42 43 48 53 59 61 65 66
41 45 79 72 80 86 56 52 38 50 46 38 36 32 28 24 24 23 24 22 21 15 14 36 43 42 45 44 39 37 34 34 41 42 48 50 53 56 55 54 53 54 57 59 62 65 68 71 70
62 68 60 66 93 79 71 53 40 42 41 40 35 31 26 23 22 23 21 28 27 26 27 25 28 30 30 34 37 46 49 50 57 60 60 62 64 68 69 68 68 67 68 70 70 71 73 76 74
58 70 69 85 76 75 90 80 39 37 33 32 28 27 23 27 28 25 25 23 27 28 28 29 36 39 37 32 33 37 45 47 42 37 34 37 40 40 40 51 72 82 80 76 74 77 79 79 79

GFSSGP_850_rhum_246.txt.gz
RH
8 13 13 24 27 33 29 23 23 19 18 20 26 30 38 37 39 42 36 15 17 41 51 56 59 50 47 46 38 28 30 33 38 42 43 41 36 38 30 26 31 37 43 42 33 37 38 31 29
8 12 16 20 30 34 29 23 23 19 30 24 24 30 32 35 40 35 29 14 16 39 49 52 60 55 49 48 40 29 28 34 36 38 40 36 29 34 27 26 27 30 32 30 31 34 34 34 37
6 12 16 33 36 31 25 13 15 22 20 21 28 27 30 37 41 26 19 15 17 40 47 48 58 58 51 48 40 30 27 34 33 33 38 29 29 33 29 28 26 28 30 30 31 32 34 35 34
7 14 15 20 20 22 19 13 10 18 25 22 26 31 34 34 29 28 25 15 18 37 44 47 56 59 53 47 39 30 26 34 32 34 43 32 28 28 28 28 28 29 30 32 34 35 36 38 37
10 12 19 21 21 18 13 10 10 11 17 26 25 32 40 34 34 29 27 18 19 33 37 46 55 59 55 48 39 30 24 31 31 35 44 35 28 26 27 29 29 27 27 28 32 41 52 55 51
12 14 19 17 16 14 13 9 9 10 15 26 29 35 37 34 36 35 31 19 20 26 34 44 54 58 56 47 40 31 23 28 30 34 39 35 29 27 26 29 30 30 29 29 32 40 49 52 54
15 20 17 18 17 14 10 8 9 10 12 25 31 46 40 34 41 36 35 18 18 23 31 43 50 57 55 48 40 32 23 26 28 31 33 32 28 28 27 28 29 30 30 29 34 45 51 55 55
13 17 17 18 18 12 11 9 8 8 9 23 30 41 38 31 42 38 28 16 20 20 27 35 45 52 52 48 42 31 24 24 29 28 31 28 26 27 27 27 28 28 29 30 36 43 49 57 55
13 18 18 14 17 12 10 11 8 7 8 11 33 33 31 26 33 37 19 19 19 22 22 31 40 45 46 43 42 35 26 23 30 32 29 28 26 25 27 27 27 28 29 30 32 38 47 59 57
16 18 13 13 12 13 12 11 9 8 8 8 13 11 25 30 27 32 17 16 17 18 20 23 31 35 41 40 39 36 30 24 24 31 32 28 26 25 25 27 28 28 30 31 32 33 38 50 54
18 18 15 14 20 26 15 14 13 9 9 7 8 8 28 35 30 32 18 16 12 13 14 18 24 30 30 33 36 33 29 24 22 24 28 29 27 26 26 26 27 28 30 32 34 35 34 33 43
29 25 33 31 28 27 26 19 12 13 9 7 7 6 22 36 33 29 25 21 18 15 13 14 19 24 25 26 30 28 25 22 19 20 24 25 25 25 25 24 24 24 25 28 30 31 32 31 29
35 38 31 26 19 19 17 20 18 15 10 7 6 12 22 34 41 37 32 27 18 16 15 13 14 15 18 24 24 24 21 19 17 17 19 22 22 21 22 22 22 21 22 23 25 28 30 29 27
29 36 28 16 21 17 23 21 14 10 10 8 7 26 30 35 38 46 37 36 24 17 16 16 14 13 14 16 19 18 18 17 17 15 15 17 19 20 21 20 20 20 21 22 24 26 29 30 31
25 28 22 22 22 21 16 16 15 18 16 14 12 14 43 38 40 39 38 36 32 21 17 16 15 14 13 14 14 16 16 17 16 14 14 14 15 17 19 19 19 18 20 22 23 25 26 28 32
35 30 30 25 23 20 19 20 19 16 17 19 15 12 13 28 44 34 32 30 33 28 20 18 16 14 13 13 13 15 15 16 16 18 16 14 14 14 16 18 18 18 20 21 22 22 22 23 24
37 43 36 33 23 24 26 29 21 18 19 22 20 17 15 14 17 48 42 36 32 32 28 21 20 16 14 14 14 15 15 16 16 17 19 18 17 15 14 15 16 19 20 20 20 21 21 20 21
37 39 37 37 30 27 30 30 24 22 22 20 17 14 13 13 12 12 39 48 42 37 35 31 24 22 19 17 16 16 16 16 17 16 17 19 20 20 19 18 16 18 20 22 23 22 25 26 31
30 34 39 36 29 32 33 34 30 24 20 18 16 14 15 12 11 10 11 13 39 48 46 40 35 29 26 23 18 17 15 15 15 15 15 16 18 19 21 21 21 21 20 19 23 30 34 33 36
30 33 35 31 25 24 37 33 25 24 20 17 16 16 14 14 12 11 10 10 11 23 38 44 39 38 30 28 24 22 18 16 15 14 14 14 14 16 17 17 17 19 21 21 22 28 36 41 48
39 36 35 35 30 32 36 33 31 21 22 18 16 15 15 16 16 15 13 13 11 19 19 36 41 39 37 34 33 31 31 26 23 18 16 14 14 15 15 15 15 15 17 16 17 20 25 34 44
46 32 31 33 40 50 32 49 29 30 20 22 17 19 30 29 26 23 17 13 13 12 27 28 32 40 39 39 45 36 27 25 18 17 17 17 18 18 17 17 17 17 18 17 16 19 22 30 34
39 37 41 36 39 42 45 62 37 30 40 42 36 34 33 32 32 36 37 25 18 17 16 35 31 42 44 44 42 40 38 27 23 25 23 20 18 20 20 23 22 22 23 26 30 30 33 36 41
34 40 46 46 47 58 37 48 50 63 51 40 34 36 36 37 39 41 44 43 38 29 24 17 45 32 38 46 46 46 42 38 32 27 24 20 15 18 21 20 25 24 24 24 28 34 35 42 49
44 60 72 63 67 60 47 60 72 48 44 39 38 36 37 40 42 41 40 39 44 48 37 22 18 37 36 45 43 46 44 45 42 35 26 24 24 16 15 17 19 20 20 24 32 40 44 45 52
49 57 81 91 83 80 61 61 77 45 45 55 53 47 41 43 46 43 42 40 39 42 58 54 37 40 61 61 58 56 51 51 52 52 44 34 25 18 16 16 23 26 28 30 33 38 40 46 46
52 70 52 81 85 88 77 69 49 51 44 56 67 47 52 50 51 48 39 38 39 34 37 51 73 74 71 73 80 82 85 85 77 73 67 60 50 30 23 23 23 32 40 45 50 50 48 52 51
58 53 79 86 90 84 62 88 86 54 50 50 64 61 58 52 53 53 52 40 40 38 34 35 46 62 84 89 90 86 89 88 86 88 84 79 70 72 55 41 36 42 52 54 54 55 51 53 56
72 67 72 78 92 98 96 90 46 53 51 58 62 61 59 53 53 60 56 52 39 40 41 37 35 41 51 77 88 97 98 91 91 91 95 89 76 88 77 82 75 70 69 67 67 66 70 72 72
55 61 66 81 79 78 93 82 52 60 60 56 53 57 57 51 51 52 54 48 48 41 44 44 39 36 38 45 48 83 100 100 100 100 100 100 98 96 96 73 82 84 89 98 93 88 87 84 84